Year,Month,Day,Hour,Minute,Value (Times are PST for temperature in C)
2015,04,25,00,00,6.30
2015,04,25,00,01,6.30
2015,04,25,00,02,6.20
2015,04,25,00,03,6.20
2015,04,25,00,04,6.20
2015,04,25,00,05,6.20
2015,04,25,00,06,6.10
2015,04,25,00,07,6.10
2015,04,25,00,08,6.10
2015,04,25,00,09,6.10
2015,04,25,00,10,6.10
2015,04,25,00,11,6.10
2015,04,25,00,12,6.00
2015,04,25,00,13,6.00
2015,04,25,00,14,6.00
2015,04,25,00,15,5.90
2015,04,25,00,16,5.90
2015,04,25,00,17,5.80
2015,04,25,00,18,5.80
2015,04,25,00,19,5.70
2015,04,25,00,20,5.70
2015,04,25,00,21,5.60
2015,04,25,00,22,5.50
2015,04,25,00,23,5.50
2015,04,25,00,24,5.40
2015,04,25,00,25,5.40
2015,04,25,00,26,5.30
2015,04,25,00,27,5.30
2015,04,25,00,28,5.20
2015,04,25,00,29,5.20
2015,04,25,00,30,5.10
2015,04,25,00,31,5.10
2015,04,25,00,32,5.10
2015,04,25,00,33,5.00
2015,04,25,00,34,5.00
2015,04,25,00,35,5.00
2015,04,25,00,36,4.90
2015,04,25,00,37,4.90
2015,04,25,00,38,4.90
2015,04,25,00,39,4.90
2015,04,25,00,40,4.90
2015,04,25,00,41,4.90
2015,04,25,00,42,4.90
2015,04,25,00,43,4.90
2015,04,25,00,44,4.90
2015,04,25,00,45,5.00
2015,04,25,00,46,5.10
2015,04,25,00,47,5.10
2015,04,25,00,48,5.20
2015,04,25,00,49,5.30
2015,04,25,00,50,5.30
2015,04,25,00,51,5.40
2015,04,25,00,52,5.40
2015,04,25,00,53,5.40
2015,04,25,00,54,5.40
2015,04,25,00,55,5.50
2015,04,25,00,56,5.50
2015,04,25,00,57,5.50
2015,04,25,00,58,5.50
2015,04,25,00,59,5.40
2015,04,25,01,00,5.40
2015,04,25,01,01,5.40
2015,04,25,01,02,5.40
2015,04,25,01,03,5.40
2015,04,25,01,04,5.30
2015,04,25,01,05,5.30
2015,04,25,01,06,5.30
2015,04,25,01,07,5.20
2015,04,25,01,08,5.20
2015,04,25,01,09,5.10
2015,04,25,01,10,5.10
2015,04,25,01,11,5.00
2015,04,25,01,12,5.00
2015,04,25,01,13,4.90
2015,04,25,01,14,4.90
2015,04,25,01,15,4.80
2015,04,25,01,16,4.80
2015,04,25,01,17,4.80
2015,04,25,01,18,4.80
2015,04,25,01,19,4.70
2015,04,25,01,20,4.70
2015,04,25,01,21,4.60
2015,04,25,01,22,4.60
2015,04,25,01,23,4.60
2015,04,25,01,24,4.50
2015,04,25,01,25,4.50
2015,04,25,01,26,4.40
2015,04,25,01,27,4.40
2015,04,25,01,28,4.40
2015,04,25,01,29,4.40
2015,04,25,01,30,4.30
2015,04,25,01,31,4.30
2015,04,25,01,32,4.30
2015,04,25,01,33,4.30
2015,04,25,01,34,4.30
2015,04,25,01,35,4.30
2015,04,25,01,36,4.30
2015,04,25,01,37,4.30
2015,04,25,01,38,4.30
2015,04,25,01,39,4.30
2015,04,25,01,40,4.20
2015,04,25,01,41,4.20
2015,04,25,01,42,4.20
2015,04,25,01,43,4.20
2015,04,25,01,44,4.20
2015,04,25,01,45,4.20
2015,04,25,01,46,4.10
2015,04,25,01,47,4.10
2015,04,25,01,48,4.10
2015,04,25,01,49,4.10
2015,04,25,01,50,4.10
2015,04,25,01,51,4.10
2015,04,25,01,52,4.10
2015,04,25,01,53,4.10
2015,04,25,01,54,4.10
2015,04,25,01,55,4.10
2015,04,25,01,56,4.10
2015,04,25,01,57,4.10
2015,04,25,01,58,4.10
2015,04,25,01,59,4.10
2015,04,25,02,00,4.10
2015,04,25,02,01,4.10
2015,04,25,02,02,4.10
2015,04,25,02,03,4.10
2015,04,25,02,04,4.00
2015,04,25,02,05,4.00
2015,04,25,02,06,4.00
2015,04,25,02,07,4.00
2015,04,25,02,08,3.90
2015,04,25,02,09,3.90
2015,04,25,02,10,3.90
2015,04,25,02,11,3.90
2015,04,25,02,12,3.80
2015,04,25,02,13,3.80
2015,04,25,02,14,3.80
2015,04,25,02,15,3.80
2015,04,25,02,16,3.80
2015,04,25,02,17,3.80
2015,04,25,02,18,3.80
2015,04,25,02,19,3.80
2015,04,25,02,20,3.80
2015,04,25,02,21,3.80
2015,04,25,02,22,3.70
2015,04,25,02,23,3.70
2015,04,25,02,24,3.70
2015,04,25,02,25,3.70
2015,04,25,02,26,3.60
2015,04,25,02,27,3.60
2015,04,25,02,28,3.60
2015,04,25,02,29,3.50
2015,04,25,02,30,3.50
2015,04,25,02,31,3.40
2015,04,25,02,32,3.40
2015,04,25,02,33,3.30
2015,04,25,02,34,3.30
2015,04,25,02,35,3.30
2015,04,25,02,36,3.20
2015,04,25,02,37,3.20
2015,04,25,02,38,3.20
2015,04,25,02,39,3.20
2015,04,25,02,40,3.20
2015,04,25,02,41,3.20
2015,04,25,02,42,3.20
2015,04,25,02,43,3.20
2015,04,25,02,44,3.20
2015,04,25,02,45,3.20
2015,04,25,02,46,3.20
2015,04,25,02,47,3.30
2015,04,25,02,48,3.30
2015,04,25,02,49,3.30
2015,04,25,02,50,3.30
2015,04,25,02,51,3.30
2015,04,25,02,52,3.30
2015,04,25,02,53,3.30
2015,04,25,02,54,3.30
2015,04,25,02,55,3.30
2015,04,25,02,56,3.30
2015,04,25,02,57,3.30
2015,04,25,02,58,3.30
2015,04,25,02,59,3.30
2015,04,25,03,00,3.30
2015,04,25,03,01,3.30
2015,04,25,03,02,3.30
2015,04,25,03,03,3.30
2015,04,25,03,04,3.30
2015,04,25,03,05,3.30
2015,04,25,03,06,3.30
2015,04,25,03,07,3.30
2015,04,25,03,08,3.30
2015,04,25,03,09,3.30
2015,04,25,03,10,3.30
2015,04,25,03,11,3.30
2015,04,25,03,12,3.30
2015,04,25,03,13,3.30
2015,04,25,03,14,3.30
2015,04,25,03,15,3.30
2015,04,25,03,16,3.40
2015,04,25,03,17,3.40
2015,04,25,03,18,3.40
2015,04,25,03,19,3.40
2015,04,25,03,20,3.40
2015,04,25,03,21,3.50
2015,04,25,03,22,3.50
2015,04,25,03,23,3.50
2015,04,25,03,24,3.50
2015,04,25,03,25,3.60
2015,04,25,03,26,3.60
2015,04,25,03,27,3.50
2015,04,25,03,28,3.50
2015,04,25,03,29,3.50
2015,04,25,03,30,3.50
2015,04,25,03,31,3.50
2015,04,25,03,32,3.50
2015,04,25,03,33,3.50
2015,04,25,03,34,3.40
2015,04,25,03,35,3.40
2015,04,25,03,36,3.40
2015,04,25,03,37,3.40
2015,04,25,03,38,3.40
2015,04,25,03,39,3.40
2015,04,25,03,40,3.40
2015,04,25,03,41,3.40
2015,04,25,03,42,3.40
2015,04,25,03,43,3.40
2015,04,25,03,44,3.40
2015,04,25,03,45,3.40
2015,04,25,03,46,3.40
2015,04,25,03,47,3.50
2015,04,25,03,48,3.50
2015,04,25,03,49,3.50
2015,04,25,03,50,3.50
2015,04,25,03,51,3.60
2015,04,25,03,52,3.60
2015,04,25,03,53,3.60
2015,04,25,03,54,3.60
2015,04,25,03,55,3.70
2015,04,25,03,56,3.70
2015,04,25,03,57,3.70
2015,04,25,03,58,3.70
2015,04,25,03,59,3.70
2015,04,25,04,00,3.70
2015,04,25,04,01,3.70
2015,04,25,04,02,3.70
2015,04,25,04,03,3.70
2015,04,25,04,04,3.70
2015,04,25,04,05,3.70
2015,04,25,04,06,3.70
2015,04,25,04,07,3.80
2015,04,25,04,08,3.80
2015,04,25,04,09,3.80
2015,04,25,04,10,3.80
2015,04,25,04,11,3.80
2015,04,25,04,12,3.80
2015,04,25,04,13,3.80
2015,04,25,04,14,3.90
2015,04,25,04,15,3.90
2015,04,25,04,16,3.90
2015,04,25,04,17,3.90
2015,04,25,04,18,3.90
2015,04,25,04,19,3.90
2015,04,25,04,20,4.00
2015,04,25,04,21,4.00
2015,04,25,04,22,4.00
2015,04,25,04,23,4.10
2015,04,25,04,24,4.10
2015,04,25,04,25,4.10
2015,04,25,04,26,4.10
2015,04,25,04,27,4.20
2015,04,25,04,28,4.20
2015,04,25,04,29,4.20
2015,04,25,04,30,4.20
2015,04,25,04,31,4.20
2015,04,25,04,32,4.30
2015,04,25,04,33,4.30
2015,04,25,04,34,4.30
2015,04,25,04,35,4.30
2015,04,25,04,36,4.40
2015,04,25,04,37,4.40
2015,04,25,04,38,4.40
2015,04,25,04,39,4.40
2015,04,25,04,40,4.40
2015,04,25,04,41,4.40
2015,04,25,04,42,4.50
2015,04,25,04,43,4.50
2015,04,25,04,44,4.50
2015,04,25,04,45,4.50
2015,04,25,04,46,4.50
2015,04,25,04,47,4.60
2015,04,25,04,48,4.60
2015,04,25,04,49,4.60
2015,04,25,04,50,4.60
2015,04,25,04,51,4.60
2015,04,25,04,52,4.60
2015,04,25,04,53,4.60
2015,04,25,04,54,4.60
2015,04,25,04,55,4.50
2015,04,25,04,56,4.50
2015,04,25,04,57,4.50
2015,04,25,04,58,4.50
2015,04,25,04,59,4.50
2015,04,25,05,00,4.50
2015,04,25,05,01,4.50
2015,04,25,05,02,4.50
2015,04,25,05,03,4.50
2015,04,25,05,04,4.50
2015,04,25,05,05,4.50
2015,04,25,05,06,4.50
2015,04,25,05,07,4.50
2015,04,25,05,08,4.50
2015,04,25,05,09,4.50
2015,04,25,05,10,4.50
2015,04,25,05,11,4.50
2015,04,25,05,12,4.50
2015,04,25,05,13,4.50
2015,04,25,05,14,4.50
2015,04,25,05,15,4.50
2015,04,25,05,16,4.50
2015,04,25,05,17,4.50
2015,04,25,05,18,4.50
2015,04,25,05,19,4.50
2015,04,25,05,20,4.50
2015,04,25,05,21,4.50
2015,04,25,05,22,4.50
2015,04,25,05,23,4.50
2015,04,25,05,24,4.50
2015,04,25,05,25,4.50
2015,04,25,05,26,4.50
2015,04,25,05,27,4.50
2015,04,25,05,28,4.50
2015,04,25,05,29,4.50
2015,04,25,05,30,4.50
2015,04,25,05,31,4.50
2015,04,25,05,32,4.50
2015,04,25,05,33,4.50
2015,04,25,05,34,4.50
2015,04,25,05,35,4.50
2015,04,25,05,36,4.50
2015,04,25,05,37,4.50
2015,04,25,05,38,4.50
2015,04,25,05,39,4.50
2015,04,25,05,40,4.50
2015,04,25,05,41,4.50
2015,04,25,05,42,4.50
2015,04,25,05,43,4.50
2015,04,25,05,44,4.60
2015,04,25,05,45,4.60
2015,04,25,05,46,4.60
2015,04,25,05,47,4.60
2015,04,25,05,48,4.60
2015,04,25,05,49,4.60
2015,04,25,05,50,4.60
2015,04,25,05,51,4.60
2015,04,25,05,52,4.60
2015,04,25,05,53,4.60
2015,04,25,05,54,4.60
2015,04,25,05,55,4.60
2015,04,25,05,56,4.60
2015,04,25,05,57,4.60
2015,04,25,05,58,4.60
2015,04,25,05,59,4.60
2015,04,25,06,00,4.60
2015,04,25,06,01,4.60
2015,04,25,06,02,4.70
2015,04,25,06,03,4.70
2015,04,25,06,04,4.70
2015,04,25,06,05,4.70
2015,04,25,06,06,4.70
2015,04,25,06,07,4.70
2015,04,25,06,08,4.70
2015,04,25,06,09,4.70
2015,04,25,06,10,4.70
2015,04,25,06,11,4.70
2015,04,25,06,12,4.70
2015,04,25,06,13,4.70
2015,04,25,06,14,4.70
2015,04,25,06,15,4.70
2015,04,25,06,16,4.70
2015,04,25,06,17,4.70
2015,04,25,06,18,4.70
2015,04,25,06,19,4.70
2015,04,25,06,20,4.70
2015,04,25,06,21,4.70
2015,04,25,06,22,4.70
2015,04,25,06,23,4.70
2015,04,25,06,24,4.70
2015,04,25,06,25,4.70
2015,04,25,06,26,4.70
2015,04,25,06,27,4.70
2015,04,25,06,28,4.80
2015,04,25,06,29,4.80
2015,04,25,06,30,4.80
2015,04,25,06,31,4.80
2015,04,25,06,32,4.80
2015,04,25,06,33,4.80
2015,04,25,06,34,4.80
2015,04,25,06,35,4.80
2015,04,25,06,36,4.80
2015,04,25,06,37,4.70
2015,04,25,06,38,4.70
2015,04,25,06,39,4.70
2015,04,25,06,40,4.70
2015,04,25,06,41,4.70
2015,04,25,06,42,4.70
2015,04,25,06,43,4.70
2015,04,25,06,44,4.70
2015,04,25,06,45,4.70
2015,04,25,06,46,4.80
2015,04,25,06,47,4.80
2015,04,25,06,48,4.80
2015,04,25,06,49,4.80
2015,04,25,06,50,4.80
2015,04,25,06,51,4.80
2015,04,25,06,52,4.80
2015,04,25,06,53,4.90
2015,04,25,06,54,4.90
2015,04,25,06,55,4.90
2015,04,25,06,56,4.90
2015,04,25,06,57,4.90
2015,04,25,06,58,4.90
2015,04,25,06,59,4.90
2015,04,25,07,00,4.90
2015,04,25,07,01,4.90
2015,04,25,07,02,4.90
2015,04,25,07,03,4.90
2015,04,25,07,04,5.00
2015,04,25,07,05,5.00
2015,04,25,07,06,5.00
2015,04,25,07,07,5.00
2015,04,25,07,08,5.10
2015,04,25,07,09,5.10
2015,04,25,07,10,5.10
2015,04,25,07,11,5.20
2015,04,25,07,12,5.20
2015,04,25,07,13,5.30
2015,04,25,07,14,5.30
2015,04,25,07,15,5.40
2015,04,25,07,16,5.40
2015,04,25,07,17,5.50
2015,04,25,07,18,5.60
2015,04,25,07,19,5.70
2015,04,25,07,20,5.80
2015,04,25,07,21,5.90
2015,04,25,07,22,6.00
2015,04,25,07,23,6.10
2015,04,25,07,24,6.10
2015,04,25,07,25,6.20
2015,04,25,07,26,6.20
2015,04,25,07,27,6.20
2015,04,25,07,28,6.20
2015,04,25,07,29,6.10
2015,04,25,07,30,6.10
2015,04,25,07,31,6.10
2015,04,25,07,32,6.10
2015,04,25,07,33,6.00
2015,04,25,07,34,6.00
2015,04,25,07,35,6.00
2015,04,25,07,36,6.00
2015,04,25,07,37,6.00
2015,04,25,07,38,6.00
2015,04,25,07,39,6.00
2015,04,25,07,40,6.00
2015,04,25,07,41,6.00
2015,04,25,07,42,6.00
2015,04,25,07,43,5.90
2015,04,25,07,44,5.90
2015,04,25,07,45,5.90
2015,04,25,07,46,5.90
2015,04,25,07,47,6.00
2015,04,25,07,48,5.90
2015,04,25,07,49,6.00
2015,04,25,07,50,6.00
2015,04,25,07,51,6.00
2015,04,25,07,52,6.00
2015,04,25,07,53,6.00
2015,04,25,07,54,6.00
2015,04,25,07,55,6.00
2015,04,25,07,56,6.00
2015,04,25,07,57,6.00
2015,04,25,07,58,6.00
2015,04,25,07,59,6.00
2015,04,25,08,00,6.10
2015,04,25,08,01,6.10
2015,04,25,08,02,6.10
2015,04,25,08,03,6.10
2015,04,25,08,04,6.10
2015,04,25,08,05,6.10
2015,04,25,08,06,6.10
2015,04,25,08,07,6.10
2015,04,25,08,08,6.10
2015,04,25,08,09,6.10
2015,04,25,08,10,6.10
2015,04,25,08,11,6.10
2015,04,25,08,12,6.10
2015,04,25,08,13,6.10
2015,04,25,08,14,6.10
2015,04,25,08,15,6.20
2015,04,25,08,16,6.20
2015,04,25,08,17,6.20
2015,04,25,08,18,6.20
2015,04,25,08,19,6.30
2015,04,25,08,20,6.30
2015,04,25,08,21,6.30
2015,04,25,08,22,6.30
2015,04,25,08,23,6.30
2015,04,25,08,24,6.30
2015,04,25,08,25,6.30
2015,04,25,08,26,6.30
2015,04,25,08,27,6.30
2015,04,25,08,28,6.30
2015,04,25,08,29,6.30
2015,04,25,08,30,6.30
2015,04,25,08,31,6.30
2015,04,25,08,32,6.30
2015,04,25,08,33,6.30
2015,04,25,08,34,6.30
2015,04,25,08,35,6.30
2015,04,25,08,36,6.30
2015,04,25,08,37,6.40
2015,04,25,08,38,6.40
2015,04,25,08,39,6.40
2015,04,25,08,40,6.40
2015,04,25,08,41,6.40
2015,04,25,08,42,6.40
2015,04,25,08,43,6.40
2015,04,25,08,44,6.30
2015,04,25,08,45,6.30
2015,04,25,08,46,6.30
2015,04,25,08,47,6.40
2015,04,25,08,48,6.40
2015,04,25,08,49,6.40
2015,04,25,08,50,6.40
2015,04,25,08,51,6.40
2015,04,25,08,52,6.40
2015,04,25,08,53,6.40
2015,04,25,08,54,6.50
2015,04,25,08,55,6.50
2015,04,25,08,56,6.60
2015,04,25,08,57,6.60
2015,04,25,08,58,6.60
2015,04,25,08,59,6.60
2015,04,25,09,00,6.60
2015,04,25,09,01,6.60
2015,04,25,09,02,6.70
2015,04,25,09,03,6.70
2015,04,25,09,04,6.70
2015,04,25,09,05,6.70
2015,04,25,09,06,6.80
2015,04,25,09,07,6.80
2015,04,25,09,08,6.90
2015,04,25,09,09,6.90
2015,04,25,09,10,6.90
2015,04,25,09,11,6.90
2015,04,25,09,12,6.90
2015,04,25,09,13,6.90
2015,04,25,09,14,6.90
2015,04,25,09,15,6.90
2015,04,25,09,16,6.90
2015,04,25,09,17,7.00
2015,04,25,09,18,7.00
2015,04,25,09,19,7.10
2015,04,25,09,20,7.10
2015,04,25,09,21,7.20
2015,04,25,09,22,7.20
2015,04,25,09,23,7.20
2015,04,25,09,24,7.30
2015,04,25,09,25,7.30
2015,04,25,09,26,7.30
2015,04,25,09,27,7.30
2015,04,25,09,28,7.40
2015,04,25,09,29,7.40
2015,04,25,09,30,7.50
2015,04,25,09,31,7.60
2015,04,25,09,32,7.60
2015,04,25,09,33,7.60
2015,04,25,09,34,7.70
2015,04,25,09,35,7.70
2015,04,25,09,36,7.80
2015,04,25,09,37,7.80
2015,04,25,09,38,7.90
2015,04,25,09,39,7.90
2015,04,25,09,40,8.00
2015,04,25,09,41,8.00
2015,04,25,09,42,8.00
2015,04,25,09,43,8.00
2015,04,25,09,44,8.10
2015,04,25,09,45,8.10
2015,04,25,09,46,8.10
2015,04,25,09,47,8.20
2015,04,25,09,48,8.20
2015,04,25,09,49,8.20
2015,04,25,09,50,8.20
2015,04,25,09,51,8.20
2015,04,25,09,52,8.30
2015,04,25,09,53,8.30
2015,04,25,09,54,8.30
2015,04,25,09,55,8.40
2015,04,25,09,56,8.40
2015,04,25,09,57,8.40
2015,04,25,09,58,8.40
2015,04,25,09,59,8.40
2015,04,25,10,00,8.50
2015,04,25,10,01,8.50
2015,04,25,10,02,8.50
2015,04,25,10,03,8.50
2015,04,25,10,04,8.50
2015,04,25,10,05,8.60
2015,04,25,10,06,8.60
2015,04,25,10,07,8.60
2015,04,25,10,08,8.60
2015,04,25,10,09,8.60
2015,04,25,10,10,8.70
2015,04,25,10,11,8.70
2015,04,25,10,12,8.70
2015,04,25,10,13,8.70
2015,04,25,10,14,8.70
2015,04,25,10,15,8.60
2015,04,25,10,16,8.70
2015,04,25,10,17,8.70
2015,04,25,10,18,8.70
2015,04,25,10,19,8.70
2015,04,25,10,20,8.70
2015,04,25,10,21,8.70
2015,04,25,10,22,8.70
2015,04,25,10,23,8.80
2015,04,25,10,24,8.80
2015,04,25,10,25,8.70
2015,04,25,10,26,8.70
2015,04,25,10,27,8.70
2015,04,25,10,28,8.70
2015,04,25,10,29,8.70
2015,04,25,10,30,8.70
2015,04,25,10,31,8.70
2015,04,25,10,32,8.80
2015,04,25,10,33,8.80
2015,04,25,10,34,8.80
2015,04,25,10,35,8.80
2015,04,25,10,36,8.90
2015,04,25,10,37,9.00
2015,04,25,10,38,9.00
2015,04,25,10,39,9.10
2015,04,25,10,40,9.20
2015,04,25,10,41,9.30
2015,04,25,10,42,9.30
2015,04,25,10,43,9.30
2015,04,25,10,44,9.30
2015,04,25,10,45,9.30
2015,04,25,10,46,9.30
2015,04,25,10,47,9.40
2015,04,25,10,48,9.40
2015,04,25,10,49,9.40
2015,04,25,10,50,9.40
2015,04,25,10,51,9.40
2015,04,25,10,52,9.50
2015,04,25,10,53,9.50
2015,04,25,10,54,9.60
2015,04,25,10,55,9.60
2015,04,25,10,56,9.60
2015,04,25,10,57,9.70
2015,04,25,10,58,9.70
2015,04,25,10,59,9.70
2015,04,25,11,00,9.70
2015,04,25,11,01,9.70
2015,04,25,11,02,9.80
2015,04,25,11,03,9.80
2015,04,25,11,04,9.80
2015,04,25,11,05,9.90
2015,04,25,11,06,9.90
2015,04,25,11,07,9.90
2015,04,25,11,08,9.90
2015,04,25,11,09,9.90
2015,04,25,11,10,9.90
2015,04,25,11,11,9.90
2015,04,25,11,12,9.90
2015,04,25,11,13,9.90
2015,04,25,11,14,9.90
2015,04,25,11,15,9.90
2015,04,25,11,16,9.90
2015,04,25,11,17,9.90
2015,04,25,11,18,10.00
2015,04,25,11,19,10.00
2015,04,25,11,20,10.00
2015,04,25,11,21,10.00
2015,04,25,11,22,10.00
2015,04,25,11,23,10.10
2015,04,25,11,24,10.10
2015,04,25,11,25,10.10
2015,04,25,11,26,10.20
2015,04,25,11,27,10.10
2015,04,25,11,28,10.10
2015,04,25,11,29,10.10
2015,04,25,11,30,10.10
2015,04,25,11,31,10.10
2015,04,25,11,32,10.10
2015,04,25,11,33,10.10
2015,04,25,11,34,10.10
2015,04,25,11,35,10.10
2015,04,25,11,36,10.10
2015,04,25,11,37,10.10
2015,04,25,11,38,10.00
2015,04,25,11,39,10.00
2015,04,25,11,40,10.00
2015,04,25,11,41,10.00
2015,04,25,11,42,10.00
2015,04,25,11,43,10.10
2015,04,25,11,44,10.10
2015,04,25,11,45,10.10
2015,04,25,11,46,10.20
2015,04,25,11,47,10.30
2015,04,25,11,48,10.40
2015,04,25,11,49,10.60
2015,04,25,11,50,10.70
2015,04,25,11,51,10.80
2015,04,25,11,52,10.90
2015,04,25,11,53,11.00
2015,04,25,11,54,11.00
2015,04,25,11,55,11.10
2015,04,25,11,56,11.00
2015,04,25,11,57,11.00
2015,04,25,11,58,10.90
2015,04,25,11,59,10.90
2015,04,25,12,00,11.00
2015,04,25,12,01,11.00
2015,04,25,12,02,11.10
2015,04,25,12,03,11.10
2015,04,25,12,04,11.10
2015,04,25,12,05,11.10
2015,04,25,12,06,11.10
2015,04,25,12,07,11.10
2015,04,25,12,08,11.10
2015,04,25,12,09,11.10
2015,04,25,12,10,11.10
2015,04,25,12,11,11.00
2015,04,25,12,12,11.00
2015,04,25,12,13,11.00
2015,04,25,12,14,10.90
2015,04,25,12,15,10.90
2015,04,25,12,16,10.90
2015,04,25,12,17,10.90
2015,04,25,12,18,10.90
2015,04,25,12,19,11.00
2015,04,25,12,20,11.10
2015,04,25,12,21,11.20
2015,04,25,12,22,11.20
2015,04,25,12,23,11.20
2015,04,25,12,24,11.30
2015,04,25,12,25,11.30
2015,04,25,12,26,11.40
2015,04,25,12,27,11.40
2015,04,25,12,28,11.50
2015,04,25,12,29,11.50
2015,04,25,12,30,11.50
2015,04,25,12,31,11.40
2015,04,25,12,32,11.30
2015,04,25,12,33,11.30
2015,04,25,12,34,11.30
2015,04,25,12,35,11.20
2015,04,25,12,36,11.20
2015,04,25,12,37,11.20
2015,04,25,12,38,11.20
2015,04,25,12,39,11.10
2015,04,25,12,40,11.10
2015,04,25,12,41,11.10
2015,04,25,12,42,11.10
2015,04,25,12,43,11.10
2015,04,25,12,44,11.00
2015,04,25,12,45,10.90
2015,04,25,12,46,10.90
2015,04,25,12,47,10.80
2015,04,25,12,48,10.80
2015,04,25,12,49,10.70
2015,04,25,12,50,10.80
2015,04,25,12,51,10.80
2015,04,25,12,52,11.00
2015,04,25,12,53,11.10
2015,04,25,12,54,11.30
2015,04,25,12,55,11.40
2015,04,25,12,56,11.50
2015,04,25,12,57,11.60
2015,04,25,12,58,11.70
2015,04,25,12,59,11.60
2015,04,25,13,00,11.50
2015,04,25,13,01,11.50
2015,04,25,13,02,11.40
2015,04,25,13,03,11.40
2015,04,25,13,04,11.40
2015,04,25,13,05,11.40
2015,04,25,13,06,11.40
2015,04,25,13,07,11.40
2015,04,25,13,08,11.30
2015,04,25,13,09,11.20
2015,04,25,13,10,11.10
2015,04,25,13,11,11.10
2015,04,25,13,12,11.10
2015,04,25,13,13,11.00
2015,04,25,13,14,10.90
2015,04,25,13,15,10.80
2015,04,25,13,16,10.80
2015,04,25,13,17,10.70
2015,04,25,13,18,10.60
2015,04,25,13,19,10.60
2015,04,25,13,20,10.50
2015,04,25,13,21,10.50
2015,04,25,13,22,10.50
2015,04,25,13,23,10.40
2015,04,25,13,24,10.40
2015,04,25,13,25,10.30
2015,04,25,13,26,10.20
2015,04,25,13,27,10.10
2015,04,25,13,28,9.90
2015,04,25,13,29,9.80
2015,04,25,13,30,9.60
2015,04,25,13,31,9.50
2015,04,25,13,32,9.40
2015,04,25,13,33,9.30
2015,04,25,13,34,9.30
2015,04,25,13,35,9.20
2015,04,25,13,36,9.20
2015,04,25,13,37,9.20
2015,04,25,13,38,9.10
2015,04,25,13,39,9.10
2015,04,25,13,40,9.00
2015,04,25,13,41,8.90
2015,04,25,13,42,8.90
2015,04,25,13,43,8.90
2015,04,25,13,44,8.90
2015,04,25,13,45,8.80
2015,04,25,13,46,8.80
2015,04,25,13,47,8.80
2015,04,25,13,48,8.80
2015,04,25,13,49,8.70
2015,04,25,13,50,8.70
2015,04,25,13,51,8.70
2015,04,25,13,52,8.60
2015,04,25,13,53,8.60
2015,04,25,13,54,8.60
2015,04,25,13,55,8.60
2015,04,25,13,56,8.70
2015,04,25,13,57,8.70
2015,04,25,13,58,8.70
2015,04,25,13,59,8.70
2015,04,25,14,00,8.70
2015,04,25,14,01,8.70
2015,04,25,14,02,8.70
2015,04,25,14,03,8.70
2015,04,25,14,04,8.70
2015,04,25,14,05,8.70
2015,04,25,14,06,8.70
2015,04,25,14,07,8.70
2015,04,25,14,08,8.80
2015,04,25,14,09,8.80
2015,04,25,14,10,8.90
2015,04,25,14,11,8.90
2015,04,25,14,12,8.90
2015,04,25,14,13,9.00
2015,04,25,14,14,9.00
2015,04,25,14,15,9.00
2015,04,25,14,16,9.10
2015,04,25,14,17,9.10
2015,04,25,14,18,9.10
2015,04,25,14,19,9.10
2015,04,25,14,20,9.10
2015,04,25,14,21,9.10
2015,04,25,14,22,9.10
2015,04,25,14,23,9.10
2015,04,25,14,24,9.10
2015,04,25,14,25,9.10
2015,04,25,14,26,9.10
2015,04,25,14,27,9.10
2015,04,25,14,28,9.10
2015,04,25,14,29,9.00
2015,04,25,14,30,9.00
2015,04,25,14,31,9.00
2015,04,25,14,32,8.90
2015,04,25,14,33,8.90
2015,04,25,14,34,8.80
2015,04,25,14,35,8.80
2015,04,25,14,36,8.80
2015,04,25,14,37,8.80
2015,04,25,14,38,8.70
2015,04,25,14,39,8.70
2015,04,25,14,40,8.70
2015,04,25,14,41,8.70
2015,04,25,14,42,8.70
2015,04,25,14,43,8.70
2015,04,25,14,44,8.80
2015,04,25,14,45,8.90
2015,04,25,14,46,8.90
2015,04,25,14,47,9.00
2015,04,25,14,48,9.10
2015,04,25,14,49,9.20
2015,04,25,14,50,9.30
2015,04,25,14,51,9.40
2015,04,25,14,52,9.60
2015,04,25,14,53,9.70
2015,04,25,14,54,9.80
2015,04,25,14,55,9.80
2015,04,25,14,56,9.90
2015,04,25,14,57,10.00
2015,04,25,14,58,10.10
2015,04,25,14,59,10.10
2015,04,25,15,00,10.20
2015,04,25,15,01,10.20
2015,04,25,15,02,10.20
2015,04,25,15,03,10.30
2015,04,25,15,04,10.30
2015,04,25,15,05,10.30
2015,04,25,15,06,10.40
2015,04,25,15,07,10.40
2015,04,25,15,08,10.40
2015,04,25,15,09,10.30
2015,04,25,15,10,10.30
2015,04,25,15,11,10.40
2015,04,25,15,12,10.50
2015,04,25,15,13,10.60
2015,04,25,15,14,10.70
2015,04,25,15,15,10.80
2015,04,25,15,16,10.90
2015,04,25,15,17,10.90
2015,04,25,15,18,10.90
2015,04,25,15,19,10.90
2015,04,25,15,20,11.00
2015,04,25,15,21,11.00
2015,04,25,15,22,11.00
2015,04,25,15,23,11.00
2015,04,25,15,24,11.00
2015,04,25,15,25,11.00
2015,04,25,15,26,11.10
2015,04,25,15,27,11.30
2015,04,25,15,28,11.50
2015,04,25,15,29,11.70
2015,04,25,15,30,11.80
2015,04,25,15,31,11.90
2015,04,25,15,32,12.00
2015,04,25,15,33,12.00
2015,04,25,15,34,12.00
2015,04,25,15,35,11.90
2015,04,25,15,36,11.80
2015,04,25,15,37,11.60
2015,04,25,15,38,11.50
2015,04,25,15,39,11.30
2015,04,25,15,40,11.30
2015,04,25,15,41,11.30
2015,04,25,15,42,11.30
2015,04,25,15,43,11.30
2015,04,25,15,44,11.40
2015,04,25,15,45,11.40
2015,04,25,15,46,11.40
2015,04,25,15,47,11.40
2015,04,25,15,48,11.50
2015,04,25,15,49,11.50
2015,04,25,15,50,11.50
2015,04,25,15,51,11.60
2015,04,25,15,52,11.60
2015,04,25,15,53,11.70
2015,04,25,15,54,11.70
2015,04,25,15,55,11.70
2015,04,25,15,56,11.80
2015,04,25,15,57,11.80
2015,04,25,15,58,11.80
2015,04,25,15,59,11.90
2015,04,25,16,00,11.90
2015,04,25,16,01,11.90
2015,04,25,16,02,12.00
2015,04,25,16,03,12.00
2015,04,25,16,04,12.10
2015,04,25,16,05,12.00
2015,04,25,16,06,12.10
2015,04,25,16,07,12.10
2015,04,25,16,08,12.10
2015,04,25,16,09,12.10
2015,04,25,16,10,12.10
2015,04,25,16,11,12.10
2015,04,25,16,12,12.10
2015,04,25,16,13,12.10
2015,04,25,16,14,12.10
2015,04,25,16,15,12.00
2015,04,25,16,16,12.00
2015,04,25,16,17,11.90
2015,04,25,16,18,11.90
2015,04,25,16,19,11.80
2015,04,25,16,20,11.80
2015,04,25,16,21,11.70
2015,04,25,16,22,11.70
2015,04,25,16,23,11.70
2015,04,25,16,24,11.70
2015,04,25,16,25,11.70
2015,04,25,16,26,11.70
2015,04,25,16,27,11.70
2015,04,25,16,28,11.70
2015,04,25,16,29,11.70
2015,04,25,16,30,11.70
2015,04,25,16,31,11.60
2015,04,25,16,32,11.60
2015,04,25,16,33,11.60
2015,04,25,16,34,11.50
2015,04,25,16,35,11.50
2015,04,25,16,36,11.50
2015,04,25,16,37,11.50
2015,04,25,16,38,11.50
2015,04,25,16,39,11.60
2015,04,25,16,40,11.60
2015,04,25,16,41,11.70
2015,04,25,16,42,11.70
2015,04,25,16,43,11.70
2015,04,25,16,44,11.60
2015,04,25,16,45,11.60
2015,04,25,16,46,11.50
2015,04,25,16,47,11.50
2015,04,25,16,48,11.40
2015,04,25,16,49,11.30
2015,04,25,16,50,11.20
2015,04,25,16,51,11.20
2015,04,25,16,52,11.20
2015,04,25,16,53,11.20
2015,04,25,16,54,11.20
2015,04,25,16,55,11.30
2015,04,25,16,56,11.30
2015,04,25,16,57,11.20
2015,04,25,16,58,11.10
2015,04,25,16,59,10.90
2015,04,25,17,00,10.80
2015,04,25,17,01,10.80
2015,04,25,17,02,10.80
2015,04,25,17,03,10.80
2015,04,25,17,04,10.70
2015,04,25,17,05,10.70
2015,04,25,17,06,10.60
2015,04,25,17,07,10.60
2015,04,25,17,08,10.50
2015,04,25,17,09,10.50
2015,04,25,17,10,10.40
2015,04,25,17,11,10.40
2015,04,25,17,12,10.50
2015,04,25,17,13,10.60
2015,04,25,17,14,10.50
2015,04,25,17,15,10.40
2015,04,25,17,16,10.30
2015,04,25,17,17,10.20
2015,04,25,17,18,10.20
2015,04,25,17,19,10.20
2015,04,25,17,20,10.30
2015,04,25,17,21,10.20
2015,04,25,17,22,10.20
2015,04,25,17,23,10.30
2015,04,25,17,24,10.30
2015,04,25,17,25,10.30
2015,04,25,17,26,10.30
2015,04,25,17,27,10.20
2015,04,25,17,28,10.20
2015,04,25,17,29,10.10
2015,04,25,17,30,10.10
2015,04,25,17,31,10.10
2015,04,25,17,32,10.10
2015,04,25,17,33,10.00
2015,04,25,17,34,10.00
2015,04,25,17,35,10.00
2015,04,25,17,36,10.00
2015,04,25,17,37,9.90
2015,04,25,17,38,10.00
2015,04,25,17,39,10.10
2015,04,25,17,40,10.10
2015,04,25,17,41,10.20
2015,04,25,17,42,10.20
2015,04,25,17,43,10.20
2015,04,25,17,44,10.10
2015,04,25,17,45,10.10
2015,04,25,17,46,10.10
2015,04,25,17,47,10.00
2015,04,25,17,48,10.00
2015,04,25,17,49,10.10
2015,04,25,17,50,10.10
2015,04,25,17,51,10.10
2015,04,25,17,52,10.20